Time,TemperatureF,DewpointF,PressureIn,WindDirection,WindDirectionDegrees,WindSpeedMPH,WindSpeedGustMPH,Humidity,HourlyPrecipIn,Conditions,Clouds,dailyrainin,SolarRadiationWatts/m^2,SoftwareType,DateUTC
2013-07-11 00:00:00,65.4,64.2,29.85,South,181,0.0,3.0,96,0.00,,---,0.34,0.00,VWS V14.01,2013-07-11 04:00:00,
2013-07-11 00:01:00,65.4,64.2,29.85,South,181,0.0,0.0,96,0.00,,---,0.00,0.00,VWS V14.01,2013-07-11 04:01:00,
2013-07-11 00:05:00,65.3,64.1,29.85,South,181,0.0,1.0,96,0.00,,---,0.00,0.00,VWS V14.01,2013-07-11 04:05:00,
2013-07-11 00:06:00,65.3,64.1,29.85,South,181,0.0,1.0,96,0.00,,---,0.00,0.00,VWS V14.01,2013-07-11 04:06:00,
2013-07-11 00:10:00,65.2,64.0,29.85,South,181,0.0,1.0,96,0.00,,---,0.00,0.00,VWS V14.01,2013-07-11 04:10:00,
2013-07-11 00:11:00,65.2,64.0,29.85,South,181,0.0,0.0,96,0.00,,---,0.00,0.00,VWS V14.01,2013-07-11 04:11:00,
2013-07-11 00:15:00,65.2,64.0,29.85,South,181,1.0,1.0,96,0.00,,---,0.00,0.00,VWS V14.01,2013-07-11 04:15:00,
2013-07-11 00:17:00,65.2,64.0,29.85,South,181,0.0,1.0,96,0.00,,---,0.00,0.00,VWS V14.01,2013-07-11 04:17:00,
2013-07-11 00:20:00,65.1,63.9,29.85,South,181,0.0,3.0,96,0.00,,---,0.00,0.00,VWS V14.01,2013-07-11 04:20:00,
2013-07-11 00:22:00,65.1,63.9,29.85,South,181,0.0,1.0,96,0.00,,---,0.00,0.00,VWS V14.01,2013-07-11 04:22:00,
2013-07-11 00:25:00,65.1,63.9,29.85,South,181,0.0,1.0,96,0.00,,---,0.00,0.00,VWS V14.01,2013-07-11 04:25:00,
2013-07-11 00:27:00,65.1,63.9,29.85,South,181,0.0,0.0,96,0.00,,---,0.00,0.00,VWS V14.01,2013-07-11 04:27:00,
2013-07-11 00:30:00,65.1,63.9,29.85,South,181,0.0,2.0,96,0.00,,---,0.00,0.00,VWS V14.01,2013-07-11 04:30:00,
2013-07-11 00:32:00,65.1,63.9,29.85,South,181,0.0,1.0,96,0.00,,---,0.00,0.00,VWS V14.01,2013-07-11 04:32:00,
2013-07-11 00:35:00,65.0,63.8,29.84,South,181,0.0,2.0,96,0.00,,---,0.00,0.00,VWS V14.01,2013-07-11 04:35:00,
2013-07-11 00:37:00,65.0,64.1,29.84,South,181,0.0,2.0,97,0.00,,---,0.00,0.00,VWS V14.01,2013-07-11 04:37:00,
2013-07-11 00:40:00,65.0,64.1,29.84,South,181,1.0,2.0,97,0.00,,---,0.00,0.00,VWS V14.01,2013-07-11 04:40:00,
2013-07-11 00:42:00,65.0,63.8,29.84,South,181,1.0,1.0,96,0.00,,---,0.00,0.00,VWS V14.01,2013-07-11 04:42:00,
2013-07-11 00:45:00,65.0,63.8,29.84,South,181,0.0,2.0,96,0.00,,---,0.00,0.00,VWS V14.01,2013-07-11 04:45:00,
2013-07-11 00:47:00,65.0,63.8,29.84,South,181,0.0,2.0,96,0.00,,---,0.00,0.00,VWS V14.01,2013-07-11 04:47:00,
2013-07-11 00:50:00,65.0,63.8,29.84,South,181,0.0,2.0,96,0.00,,---,0.00,0.00,VWS V14.01,2013-07-11 04:50:00,
2013-07-11 00:52:00,65.0,63.8,29.84,South,186,1.0,3.0,96,0.00,,---,0.00,0.00,VWS V14.01,2013-07-11 04:52:00,
2013-07-11 00:55:00,65.1,64.2,29.84,SSW,198,3.0,4.0,97,0.00,,---,0.00,0.00,VWS V14.01,2013-07-11 04:55:00,
2013-07-11 00:57:00,65.1,64.2,29.84,SSW,199,0.0,4.0,97,0.00,,---,0.00,0.00,VWS V14.01,2013-07-11 04:57:00,
2013-07-11 01:00:00,65.1,64.2,29.84,SSW,205,3.0,5.0,97,0.00,,---,0.00,0.00,VWS V14.01,2013-07-11 05:00:00,
2013-07-11 01:02:00,65.2,64.3,29.84,SW,215,4.0,5.0,97,0.00,,---,0.00,0.00,VWS V14.01,2013-07-11 05:02:00,
2013-07-11 01:05:00,65.1,64.2,29.84,SW,215,4.0,5.0,97,0.00,,---,0.00,0.00,VWS V14.01,2013-07-11 05:05:00,
2013-07-11 01:07:00,65.1,64.2,29.84,SW,215,0.0,4.0,97,0.00,,---,0.00,0.00,VWS V14.01,2013-07-11 05:07:00,
2013-07-11 01:10:00,65.1,64.2,29.84,SW,215,5.0,5.0,97,0.00,,---,0.00,0.00,VWS V14.01,2013-07-11 05:10:00,
2013-07-11 01:12:00,65.1,64.2,29.84,SSW,213,0.0,5.0,97,0.00,,---,0.00,0.00,VWS V14.01,2013-07-11 05:12:00,
2013-07-11 01:15:00,65.1,64.2,29.84,SSW,211,3.0,6.0,97,0.00,,---,0.00,0.00,VWS V14.01,2013-07-11 05:15:00,
2013-07-11 01:17:00,65.1,64.2,29.84,SSW,211,3.0,3.0,97,0.00,,---,0.00,0.00,VWS V14.01,2013-07-11 05:17:00,
2013-07-11 01:20:00,65.1,64.2,29.84,SSW,211,3.0,5.0,97,0.00,,---,0.00,0.00,VWS V14.01,2013-07-11 05:20:00,
2013-07-11 01:22:00,65.1,64.2,29.84,SSW,211,0.0,4.0,97,0.00,,---,0.00,0.00,VWS V14.01,2013-07-11 05:22:00,
2013-07-11 01:25:00,65.1,64.2,29.84,SSW,212,3.0,5.0,97,0.00,,---,0.00,0.00,VWS V14.01,2013-07-11 05:25:00,
2013-07-11 01:27:00,65.1,64.2,29.84,SSW,212,3.0,3.0,97,0.00,,---,0.00,0.00,VWS V14.01,2013-07-11 05:27:00,
2013-07-11 01:30:00,65.0,64.1,29.84,SSW,212,3.0,4.0,97,0.00,,---,0.00,0.00,VWS V14.01,2013-07-11 05:30:00,
2013-07-11 01:32:00,65.0,64.1,29.84,SSW,212,4.0,5.0,97,0.00,,---,0.00,0.00,VWS V14.01,2013-07-11 05:32:00,
2013-07-11 01:35:00,65.1,64.2,29.84,SSW,212,2.0,5.0,97,0.00,,---,0.00,0.00,VWS V14.01,2013-07-11 05:35:00,
2013-07-11 01:37:00,65.1,64.2,29.84,SSW,212,0.0,4.0,97,0.00,,---,0.00,0.00,VWS V14.01,2013-07-11 05:37:00,
2013-07-11 01:40:00,65.1,64.2,29.84,SSW,211,3.0,5.0,97,0.00,,---,0.00,0.00,VWS V14.01,2013-07-11 05:40:00,
2013-07-11 01:42:00,65.1,64.2,29.84,SSW,211,0.0,3.0,97,0.00,,---,0.00,0.00,VWS V14.01,2013-07-11 05:42:00,
2013-07-11 01:45:00,65.1,64.2,29.84,SSW,211,0.0,3.0,97,0.00,,---,0.00,0.00,VWS V14.01,2013-07-11 05:45:00,
2013-07-11 01:47:00,65.2,64.3,29.84,SW,221,2.0,4.0,97,0.00,,---,0.00,0.00,VWS V14.01,2013-07-11 05:47:00,
2013-07-11 01:50:00,65.2,64.3,29.85,SW,229,0.0,4.0,97,0.00,,---,0.00,0.00,VWS V14.01,2013-07-11 05:50:00,
2013-07-11 01:52:00,65.2,64.3,29.84,SW,229,0.0,1.0,97,0.00,,---,0.00,0.00,VWS V14.01,2013-07-11 05:52:00,
2013-07-11 01:55:00,65.2,64.3,29.84,SW,230,0.0,5.0,97,0.00,,---,0.00,0.00,VWS V14.01,2013-07-11 05:55:00,
2013-07-11 01:57:00,65.3,64.4,29.84,SW,230,2.0,3.0,97,0.00,,---,0.00,0.00,VWS V14.01,2013-07-11 05:57:00,
2013-07-11 02:00:00,65.3,64.4,29.84,SW,230,2.0,4.0,97,0.00,,---,0.00,0.00,VWS V14.01,2013-07-11 06:00:00,
2013-07-11 02:02:00,65.3,64.4,29.84,SW,230,2.0,4.0,97,0.00,,---,0.00,0.00,VWS V14.01,2013-07-11 06:02:00,
2013-07-11 02:05:00,65.3,64.4,29.84,SW,230,0.0,4.0,97,0.00,,---,0.00,0.00,VWS V14.01,2013-07-11 06:05:00,
2013-07-11 02:07:00,65.4,64.5,29.84,SW,230,1.0,3.0,97,0.00,,---,0.00,0.00,VWS V14.01,2013-07-11 06:07:00,
2013-07-11 02:10:00,65.4,64.5,29.84,SW,230,2.0,3.0,97,0.00,,---,0.00,0.00,VWS V14.01,2013-07-11 06:10:00,
2013-07-11 02:12:00,65.4,64.5,29.84,SW,230,0.0,2.0,97,0.00,,---,0.00,0.00,VWS V14.01,2013-07-11 06:12:00,
2013-07-11 02:15:00,65.4,64.5,29.84,SW,230,0.0,3.0,97,0.00,,---,0.00,0.00,VWS V14.01,2013-07-11 06:15:00,
2013-07-11 02:17:00,65.4,64.5,29.84,SW,230,1.0,1.0,97,0.00,,---,0.00,0.00,VWS V14.01,2013-07-11 06:17:00,
2013-07-11 02:20:00,65.4,64.5,29.84,SW,230,0.0,2.0,97,0.00,,---,0.00,0.00,VWS V14.01,2013-07-11 06:20:00,
2013-07-11 02:22:00,65.4,64.5,29.84,SW,230,0.0,1.0,97,0.00,,---,0.00,0.00,VWS V14.01,2013-07-11 06:22:00,
2013-07-11 02:25:00,65.4,64.5,29.84,SW,230,0.0,1.0,97,0.00,,---,0.00,0.00,VWS V14.01,2013-07-11 06:25:00,
2013-07-11 02:27:00,65.4,64.5,29.84,SW,230,1.0,1.0,97,0.00,,---,0.00,0.00,VWS V14.01,2013-07-11 06:27:00,
2013-07-11 02:30:00,65.4,64.5,29.84,SW,230,1.0,2.0,97,0.00,,---,0.00,0.00,VWS V14.01,2013-07-11 06:30:00,
2013-07-11 02:32:00,65.5,64.6,29.84,SW,230,1.0,1.0,97,0.00,,---,0.00,0.00,VWS V14.01,2013-07-11 06:32:00,
2013-07-11 02:35:00,65.4,64.5,29.84,SW,230,0.0,2.0,97,0.00,,---,0.00,0.00,VWS V14.01,2013-07-11 06:35:00,
2013-07-11 02:37:00,65.4,64.5,29.85,SW,230,0.0,1.0,97,0.00,,---,0.00,0.00,VWS V14.01,2013-07-11 06:37:00,
2013-07-11 02:40:00,65.5,64.6,29.84,SW,230,0.0,1.0,97,0.00,,---,0.00,0.00,VWS V14.01,2013-07-11 06:40:00,
2013-07-11 02:42:00,65.4,64.5,29.84,SW,230,0.0,0.0,97,0.00,,---,0.00,0.00,VWS V14.01,2013-07-11 06:42:00,
2013-07-11 02:45:00,65.5,64.6,29.84,SW,230,0.0,0.0,97,0.00,,---,0.00,0.00,VWS V14.01,2013-07-11 06:45:00,
2013-07-11 02:47:00,65.5,64.6,29.84,SW,230,0.0,0.0,97,0.00,,---,0.00,0.00,VWS V14.01,2013-07-11 06:47:00,
2013-07-11 02:50:00,65.5,64.6,29.84,SW,230,0.0,0.0,97,0.00,,---,0.00,0.00,VWS V14.01,2013-07-11 06:50:00,
2013-07-11 02:52:00,65.5,64.6,29.84,SW,230,0.0,0.0,97,0.00,,---,0.00,0.00,VWS V14.01,2013-07-11 06:52:00,
2013-07-11 02:55:00,65.5,64.6,29.84,SW,230,0.0,0.0,97,0.00,,---,0.00,0.00,VWS V14.01,2013-07-11 06:55:00,
2013-07-11 02:58:00,65.6,64.7,29.84,SW,230,0.0,0.0,97,0.00,,---,0.00,0.00,VWS V14.01,2013-07-11 06:58:00,
2013-07-11 03:00:00,65.6,64.7,29.84,SW,230,0.0,0.0,97,0.00,,---,0.00,0.00,VWS V14.01,2013-07-11 07:00:00,
2013-07-11 03:03:00,65.6,64.7,29.84,SW,230,0.0,0.0,97,0.00,,---,0.00,0.00,VWS V14.01,2013-07-11 07:03:00,
2013-07-11 03:05:00,65.6,64.7,29.84,SW,230,0.0,0.0,97,0.00,,---,0.00,0.00,VWS V14.01,2013-07-11 07:05:00,
2013-07-11 03:08:00,65.6,64.7,29.85,SW,230,0.0,2.0,97,0.00,,---,0.00,0.00,VWS V14.01,2013-07-11 07:08:00,
2013-07-11 03:10:00,65.6,64.7,29.85,SW,230,0.0,2.0,97,0.00,,---,0.00,0.00,VWS V14.01,2013-07-11 07:10:00,
2013-07-11 03:13:00,65.6,64.7,29.84,SW,230,0.0,0.0,97,0.00,,---,0.00,0.00,VWS V14.01,2013-07-11 07:13:00,
2013-07-11 03:15:00,65.6,64.7,29.84,SW,230,0.0,0.0,97,0.00,,---,0.00,0.00,VWS V14.01,2013-07-11 07:15:00,
2013-07-11 03:18:00,65.6,64.7,29.84,SW,230,0.0,2.0,97,0.00,,---,0.00,0.00,VWS V14.01,2013-07-11 07:18:00,
2013-07-11 03:20:00,65.6,64.7,29.84,SW,230,0.0,2.0,97,0.00,,---,0.00,0.00,VWS V14.01,2013-07-11 07:20:00,
2013-07-11 03:23:00,65.6,64.7,29.84,SW,230,0.0,0.0,97,0.00,,---,0.00,0.00,VWS V14.01,2013-07-11 07:23:00,
2013-07-11 03:25:00,65.6,64.7,29.84,SW,230,0.0,0.0,97,0.00,,---,0.00,0.00,VWS V14.01,2013-07-11 07:25:00,
2013-07-11 03:28:00,65.7,64.8,29.84,SW,230,0.0,0.0,97,0.00,,---,0.00,0.00,VWS V14.01,2013-07-11 07:28:00,
2013-07-11 03:30:00,65.7,64.8,29.84,SW,230,1.0,1.0,97,0.00,,---,0.00,0.00,VWS V14.01,2013-07-11 07:30:00,
2013-07-11 03:33:00,65.7,64.8,29.84,SW,230,0.0,1.0,97,0.00,,---,0.00,0.00,VWS V14.01,2013-07-11 07:33:00,
2013-07-11 03:35:00,65.7,64.8,29.84,SW,230,0.0,1.0,97,0.00,,---,0.00,0.00,VWS V14.01,2013-07-11 07:35:00,
2013-07-11 03:38:00,65.7,64.8,29.84,SW,230,0.0,0.0,97,0.00,,---,0.00,0.00,VWS V14.01,2013-07-11 07:38:00,
2013-07-11 03:40:00,65.7,64.8,29.84,SW,230,1.0,1.0,97,0.00,,---,0.00,0.00,VWS V14.01,2013-07-11 07:40:00,
2013-07-11 03:43:00,65.7,64.8,29.84,SW,230,0.0,1.0,97,0.00,,---,0.00,0.00,VWS V14.01,2013-07-11 07:43:00,
2013-07-11 03:45:00,65.7,64.8,29.84,SW,230,0.0,1.0,97,0.00,,---,0.00,0.00,VWS V14.01,2013-07-11 07:45:00,
2013-07-11 03:48:00,65.7,64.8,29.84,SW,230,0.0,1.0,97,0.00,,---,0.00,0.00,VWS V14.01,2013-07-11 07:48:00,
2013-07-11 03:50:00,65.7,64.8,29.84,SW,230,0.0,1.0,97,0.00,,---,0.00,0.00,VWS V14.01,2013-07-11 07:50:00,
2013-07-11 03:53:00,65.7,64.8,29.84,SW,230,0.0,0.0,97,0.00,,---,0.00,0.00,VWS V14.01,2013-07-11 07:53:00,
2013-07-11 03:55:00,65.7,64.8,29.84,SW,230,0.0,0.0,97,0.00,,---,0.00,0.00,VWS V14.01,2013-07-11 07:55:00,
2013-07-11 03:58:00,65.8,64.9,29.84,SW,230,0.0,0.0,97,0.00,,---,0.00,0.00,VWS V14.01,2013-07-11 07:58:00,
2013-07-11 04:00:00,65.8,64.9,29.84,SW,230,0.0,0.0,97,0.00,,---,0.00,0.00,VWS V14.01,2013-07-11 08:00:00,
2013-07-11 04:03:00,65.8,64.9,29.86,SW,230,0.0,0.0,97,0.00,,---,0.00,0.00,VWS V14.01,2013-07-11 08:03:00,
2013-07-11 04:05:00,65.8,64.9,29.86,SW,230,0.0,0.0,97,0.00,,---,0.00,0.00,VWS V14.01,2013-07-11 08:05:00,
2013-07-11 04:08:00,65.8,64.9,29.86,SW,230,0.0,0.0,97,0.00,,---,0.00,0.00,VWS V14.01,2013-07-11 08:08:00,
2013-07-11 04:10:00,65.8,64.9,29.86,SW,230,0.0,0.0,97,0.00,,---,0.00,0.00,VWS V14.01,2013-07-11 08:10:00,
2013-07-11 04:13:00,65.8,64.9,29.86,SW,230,0.0,0.0,97,0.00,,---,0.00,0.00,VWS V14.01,2013-07-11 08:13:00,
2013-07-11 04:15:00,65.8,64.9,29.86,SW,230,0.0,0.0,97,0.00,,---,0.00,0.00,VWS V14.01,2013-07-11 08:15:00,
2013-07-11 04:18:00,65.8,64.9,29.86,SW,230,0.0,0.0,97,0.00,,---,0.00,0.00,VWS V14.01,2013-07-11 08:18:00,
2013-07-11 04:20:00,65.8,64.9,29.86,SW,230,0.0,0.0,97,0.00,,---,0.00,0.00,VWS V14.01,2013-07-11 08:20:00,
2013-07-11 04:23:00,65.8,64.9,29.86,SW,230,0.0,0.0,97,0.00,,---,0.00,0.00,VWS V14.01,2013-07-11 08:23:00,
2013-07-11 04:25:00,65.8,64.9,29.86,SW,230,0.0,0.0,97,0.00,,---,0.00,0.00,VWS V14.01,2013-07-11 08:25:00,
2013-07-11 04:28:00,65.7,64.8,29.86,SW,230,0.0,0.0,97,0.00,,---,0.00,0.00,VWS V14.01,2013-07-11 08:28:00,
2013-07-11 04:30:00,65.7,64.8,29.85,SW,230,0.0,0.0,97,0.00,,---,0.00,0.00,VWS V14.01,2013-07-11 08:30:00,
2013-07-11 04:33:00,65.7,64.8,29.85,SW,230,0.0,0.0,97,0.00,,---,0.00,0.00,VWS V14.01,2013-07-11 08:33:00,
2013-07-11 04:35:00,65.7,64.8,29.85,SW,230,0.0,0.0,97,0.00,,---,0.00,0.00,VWS V14.01,2013-07-11 08:35:00,
2013-07-11 04:38:00,65.7,64.8,29.85,SW,230,0.0,0.0,97,0.00,,---,0.00,0.00,VWS V14.01,2013-07-11 08:38:00,
2013-07-11 04:40:00,65.7,64.8,29.85,SW,230,0.0,0.0,97,0.00,,---,0.00,0.00,VWS V14.01,2013-07-11 08:40:00,
2013-07-11 04:43:00,65.6,64.7,29.85,SW,230,0.0,0.0,97,0.00,,---,0.00,0.00,VWS V14.01,2013-07-11 08:43:00,
2013-07-11 04:45:00,65.6,64.7,29.85,SW,230,0.0,0.0,97,0.00,,---,0.00,0.00,VWS V14.01,2013-07-11 08:45:00,
2013-07-11 04:48:00,65.5,64.6,29.85,SW,230,0.0,0.0,97,0.00,,---,0.00,0.00,VWS V14.01,2013-07-11 08:48:00,
2013-07-11 04:50:00,65.5,64.6,29.85,SW,230,0.0,0.0,97,0.00,,---,0.00,0.00,VWS V14.01,2013-07-11 08:50:00,
2013-07-11 04:53:00,65.5,64.6,29.85,SW,230,0.0,0.0,97,0.00,,---,0.00,0.00,VWS V14.01,2013-07-11 08:53:00,
2013-07-11 04:55:00,65.4,64.5,29.86,SW,230,0.0,0.0,97,0.00,,---,0.00,0.00,VWS V14.01,2013-07-11 08:55:00,
2013-07-11 04:58:00,65.4,64.5,29.86,SW,230,0.0,0.0,97,0.00,,---,0.00,0.00,VWS V14.01,2013-07-11 08:58:00,
2013-07-11 05:00:00,65.4,64.5,29.86,SW,230,0.0,0.0,97,0.00,,---,0.00,0.00,VWS V14.01,2013-07-11 09:00:00,
2013-07-11 05:03:00,65.3,64.4,29.86,SW,230,0.0,0.0,97,0.00,,---,0.00,0.00,VWS V14.01,2013-07-11 09:03:00,
2013-07-11 05:05:00,65.2,64.3,29.86,SW,230,0.0,0.0,97,0.00,,---,0.00,0.00,VWS V14.01,2013-07-11 09:05:00,
2013-07-11 05:09:00,65.2,64.3,29.86,SW,230,0.0,0.0,97,0.00,,---,0.00,0.00,VWS V14.01,2013-07-11 09:09:00,
2013-07-11 05:10:00,65.2,64.3,29.86,SW,230,0.0,0.0,97,0.00,,---,0.00,0.00,VWS V14.01,2013-07-11 09:10:00,
2013-07-11 05:14:00,65.1,64.2,29.86,SW,230,0.0,0.0,97,0.00,,---,0.00,0.00,VWS V14.01,2013-07-11 09:14:00,
2013-07-11 05:15:00,65.1,64.2,29.86,SW,230,0.0,0.0,97,0.00,,---,0.00,0.00,VWS V14.01,2013-07-11 09:15:00,
2013-07-11 05:19:00,65.0,64.1,29.86,SW,230,0.0,0.0,97,0.00,,---,0.00,0.00,VWS V14.01,2013-07-11 09:19:00,
2013-07-11 05:20:00,65.1,64.2,29.86,SW,230,0.0,0.0,97,0.00,,---,0.00,0.00,VWS V14.01,2013-07-11 09:20:00,
2013-07-11 05:24:00,65.0,64.1,29.86,SW,230,0.0,0.0,97,0.00,,---,0.00,0.00,VWS V14.01,2013-07-11 09:24:00,
2013-07-11 05:25:00,65.0,64.1,29.86,SW,230,0.0,0.0,97,0.00,,---,0.00,0.00,VWS V14.01,2013-07-11 09:25:00,
2013-07-11 05:29:00,65.1,64.2,29.86,SW,230,0.0,0.0,97,0.00,,---,0.00,0.00,VWS V14.01,2013-07-11 09:29:00,
2013-07-11 05:30:00,65.0,64.1,29.86,SW,230,0.0,0.0,97,0.00,,---,0.00,0.00,VWS V14.01,2013-07-11 09:30:00,
2013-07-11 05:34:00,65.1,64.5,29.86,SW,230,0.0,0.0,98,0.00,,---,0.00,0.00,VWS V14.01,2013-07-11 09:34:00,
2013-07-11 05:35:00,65.1,64.2,29.86,SW,230,0.0,0.0,97,0.00,,---,0.00,0.00,VWS V14.01,2013-07-11 09:35:00,
2013-07-11 05:39:00,65.2,64.6,29.86,SW,230,0.0,0.0,98,0.00,,---,0.00,0.00,VWS V14.01,2013-07-11 09:39:00,
2013-07-11 05:40:00,65.2,64.6,29.86,SW,230,0.0,0.0,98,0.00,,---,0.00,0.00,VWS V14.01,2013-07-11 09:40:00,
2013-07-11 05:44:00,65.3,64.7,29.86,SW,230,0.0,0.0,98,0.00,,---,0.00,0.00,VWS V14.01,2013-07-11 09:44:00,
2013-07-11 05:45:00,65.4,64.8,29.86,SW,230,0.0,0.0,98,0.00,,---,0.00,0.00,VWS V14.01,2013-07-11 09:45:00,
2013-07-11 05:49:00,65.4,64.8,29.86,SW,230,0.0,0.0,98,0.00,,---,0.00,0.00,VWS V14.01,2013-07-11 09:49:00,
2013-07-11 05:50:00,65.4,64.8,29.86,SW,230,0.0,0.0,98,0.00,,---,0.00,0.00,VWS V14.01,2013-07-11 09:50:00,
2013-07-11 05:54:00,65.4,64.8,29.86,SW,230,0.0,0.0,98,0.00,,---,0.00,0.00,VWS V14.01,2013-07-11 09:54:00,
2013-07-11 05:55:00,65.4,64.8,29.86,SW,230,0.0,0.0,98,0.00,,---,0.00,0.00,VWS V14.01,2013-07-11 09:55:00,
2013-07-11 05:59:00,65.4,64.8,29.86,SW,230,0.0,0.0,98,0.00,,---,0.00,0.00,VWS V14.01,2013-07-11 09:59:00,
2013-07-11 06:00:00,65.5,64.9,29.86,SW,230,0.0,0.0,98,0.00,,---,0.00,0.00,VWS V14.01,2013-07-11 10:00:00,
2013-07-11 06:04:00,65.5,64.9,29.87,SW,230,0.0,0.0,98,0.00,,---,0.00,0.00,VWS V14.01,2013-07-11 10:04:00,
2013-07-11 06:05:00,65.4,64.8,29.87,SW,230,0.0,0.0,98,0.00,,---,0.00,0.00,VWS V14.01,2013-07-11 10:05:00,
2013-07-11 06:09:00,65.4,64.8,29.87,SW,230,0.0,0.0,98,0.00,,---,0.00,0.00,VWS V14.01,2013-07-11 10:09:00,
2013-07-11 06:10:00,65.4,64.8,29.87,SW,230,0.0,0.0,98,0.00,,---,0.00,0.00,VWS V14.01,2013-07-11 10:10:00,
2013-07-11 06:14:00,65.4,64.8,29.87,SW,230,0.0,0.0,98,0.00,,---,0.00,0.00,VWS V14.01,2013-07-11 10:14:00,
2013-07-11 06:15:00,65.4,64.8,29.87,SW,230,0.0,0.0,98,0.00,,---,0.00,0.00,VWS V14.01,2013-07-11 10:15:00,
2013-07-11 06:19:00,65.3,64.7,29.87,SW,230,0.0,0.0,98,0.00,,---,0.00,5.00,VWS V14.01,2013-07-11 10:19:00,
2013-07-11 06:20:00,65.3,64.7,29.87,SW,230,0.0,0.0,98,0.00,,---,0.00,5.00,VWS V14.01,2013-07-11 10:20:00,
2013-07-11 06:24:00,65.2,64.6,29.87,SW,230,0.0,0.0,98,0.00,,---,0.00,7.00,VWS V14.01,2013-07-11 10:24:00,
2013-07-11 06:25:00,65.2,64.6,29.87,SW,230,0.0,0.0,98,0.00,,---,0.00,7.00,VWS V14.01,2013-07-11 10:25:00,
2013-07-11 06:29:00,65.1,64.2,29.88,SW,230,0.0,1.0,97,0.00,,---,0.00,9.00,VWS V14.01,2013-07-11 10:29:00,
2013-07-11 06:30:00,65.1,64.2,29.88,SW,230,0.0,1.0,97,0.00,,---,0.00,9.00,VWS V14.01,2013-07-11 10:30:00,
2013-07-11 06:34:00,65.0,64.1,29.88,SW,230,0.0,1.0,97,0.00,,---,0.00,11.00,VWS V14.01,2013-07-11 10:34:00,
2013-07-11 06:35:00,65.0,64.1,29.88,SW,230,0.0,1.0,97,0.00,,---,0.00,11.00,VWS V14.01,2013-07-11 10:35:00,
2013-07-11 06:39:00,65.0,64.1,29.88,SW,230,0.0,0.0,97,0.00,,---,0.00,12.00,VWS V14.01,2013-07-11 10:39:00,
2013-07-11 06:40:00,65.0,64.1,29.88,SW,230,0.0,0.0,97,0.00,,---,0.00,12.00,VWS V14.01,2013-07-11 10:40:00,
2013-07-11 06:44:00,65.0,64.4,29.88,SW,230,0.0,0.0,98,0.00,,---,0.00,11.00,VWS V14.01,2013-07-11 10:44:00,
2013-07-11 06:45:00,65.0,64.4,29.88,SW,230,0.0,0.0,98,0.00,,---,0.00,11.00,VWS V14.01,2013-07-11 10:45:00,
2013-07-11 06:49:00,65.0,64.4,29.88,SW,230,0.0,0.0,98,0.00,,---,0.00,12.00,VWS V14.01,2013-07-11 10:49:00,
2013-07-11 06:50:00,65.1,64.5,29.88,SW,230,0.0,0.0,98,0.00,,---,0.00,12.00,VWS V14.01,2013-07-11 10:50:00,
2013-07-11 06:54:00,65.2,64.6,29.88,SW,230,0.0,0.0,98,0.00,,---,0.00,16.00,VWS V14.01,2013-07-11 10:54:00,
2013-07-11 06:55:00,65.3,64.7,29.88,SW,230,0.0,0.0,98,0.00,,---,0.00,16.00,VWS V14.01,2013-07-11 10:55:00,
2013-07-11 06:59:00,65.4,64.8,29.88,SW,230,0.0,0.0,98,0.00,,---,0.00,19.00,VWS V14.01,2013-07-11 10:59:00,
2013-07-11 07:00:00,65.4,64.8,29.88,SW,230,0.0,0.0,98,0.00,,---,0.00,21.00,VWS V14.01,2013-07-11 11:00:00,
2013-07-11 07:04:00,65.5,64.9,29.88,SW,230,0.0,0.0,98,0.00,,---,0.00,32.00,VWS V14.01,2013-07-11 11:04:00,
2013-07-11 07:05:00,65.5,64.9,29.88,SW,230,0.0,0.0,98,0.00,,---,0.00,33.00,VWS V14.01,2013-07-11 11:05:00,
2013-07-11 07:09:00,65.6,65.0,29.88,SW,230,0.0,0.0,98,0.00,,---,0.00,42.00,VWS V14.01,2013-07-11 11:09:00,
2013-07-11 07:10:00,65.6,65.0,29.88,SW,230,0.0,0.0,98,0.00,,---,0.00,42.00,VWS V14.01,2013-07-11 11:10:00,
2013-07-11 07:14:00,65.7,65.1,29.88,SW,230,0.0,0.0,98,0.00,,---,0.00,51.00,VWS V14.01,2013-07-11 11:14:00,
2013-07-11 07:15:00,65.7,65.1,29.88,SW,230,0.0,0.0,98,0.00,,---,0.00,51.00,VWS V14.01,2013-07-11 11:15:00,
2013-07-11 07:19:00,65.9,65.3,29.88,SW,230,0.0,0.0,98,0.00,,---,0.00,67.00,VWS V14.01,2013-07-11 11:19:00,
2013-07-11 07:20:00,65.9,65.3,29.88,SW,230,0.0,0.0,98,0.00,,---,0.00,67.00,VWS V14.01,2013-07-11 11:20:00,
2013-07-11 07:24:00,66.0,65.4,29.88,SW,230,1.0,1.0,98,0.00,,---,0.00,111.00,VWS V14.01,2013-07-11 11:24:00,
2013-07-11 07:25:00,66.0,65.4,29.88,SW,230,0.0,1.0,98,0.00,,---,0.00,111.00,VWS V14.01,2013-07-11 11:25:00,
2013-07-11 07:29:00,66.1,65.5,29.89,SW,230,0.0,1.0,98,0.00,,---,0.00,83.00,VWS V14.01,2013-07-11 11:29:00,
2013-07-11 07:30:00,66.1,65.5,29.89,SW,230,0.0,1.0,98,0.00,,---,0.00,83.00,VWS V14.01,2013-07-11 11:30:00,
2013-07-11 07:34:00,66.2,65.6,29.89,SW,230,0.0,0.0,98,0.00,,---,0.00,69.00,VWS V14.01,2013-07-11 11:34:00,
2013-07-11 07:35:00,66.2,65.6,29.89,SW,230,0.0,0.0,98,0.00,,---,0.00,69.00,VWS V14.01,2013-07-11 11:35:00,
2013-07-11 07:39:00,66.3,65.7,29.89,SW,230,0.0,0.0,98,0.00,,---,0.00,69.00,VWS V14.01,2013-07-11 11:39:00,
2013-07-11 07:40:00,66.3,65.7,29.89,SW,230,0.0,0.0,98,0.00,,---,0.00,69.00,VWS V14.01,2013-07-11 11:40:00,
2013-07-11 07:44:00,66.4,65.8,29.89,SW,230,0.0,0.0,98,0.00,,---,0.00,76.00,VWS V14.01,2013-07-11 11:44:00,
2013-07-11 07:45:00,66.4,65.8,29.89,SW,230,0.0,0.0,98,0.00,,---,0.00,76.00,VWS V14.01,2013-07-11 11:45:00,
2013-07-11 07:49:00,66.5,65.9,29.89,SW,230,0.0,0.0,98,0.00,,---,0.00,79.00,VWS V14.01,2013-07-11 11:49:00,
2013-07-11 07:50:00,66.5,65.9,29.89,SW,230,0.0,0.0,98,0.00,,---,0.00,79.00,VWS V14.01,2013-07-11 11:50:00,
2013-07-11 07:54:00,66.5,65.9,29.89,SW,230,0.0,0.0,98,0.00,,---,0.00,179.00,VWS V14.01,2013-07-11 11:54:00,
2013-07-11 07:55:00,66.5,65.9,29.89,SW,230,0.0,0.0,98,0.00,,---,0.00,179.00,VWS V14.01,2013-07-11 11:55:00,
2013-07-11 07:59:00,66.7,66.1,29.89,SW,230,0.0,0.0,98,0.00,,---,0.00,202.00,VWS V14.01,2013-07-11 11:59:00,
2013-07-11 08:00:00,66.7,66.1,29.89,SW,230,0.0,0.0,98,0.00,,---,0.00,202.00,VWS V14.01,2013-07-11 12:00:00,
2013-07-11 08:05:00,67.0,66.4,29.89,SW,230,0.0,1.0,98,0.00,,---,0.00,190.00,VWS V14.01,2013-07-11 12:05:00,
2013-07-11 08:10:00,67.0,66.4,29.89,SW,230,0.0,0.0,98,0.00,,---,0.00,125.00,VWS V14.01,2013-07-11 12:10:00,
2013-07-11 08:15:00,67.0,66.4,29.89,SW,230,0.0,0.0,98,0.00,,---,0.00,98.00,VWS V14.01,2013-07-11 12:15:00,
2013-07-11 08:20:00,67.0,66.4,29.89,SW,230,0.0,0.0,98,0.00,,---,0.00,84.00,VWS V14.01,2013-07-11 12:20:00,
2013-07-11 08:25:00,67.1,66.5,29.89,SW,230,0.0,0.0,98,0.00,,---,0.00,239.00,VWS V14.01,2013-07-11 12:25:00,
2013-07-11 08:30:00,67.4,66.8,29.89,SW,230,1.0,2.0,98,0.00,,---,0.00,271.00,VWS V14.01,2013-07-11 12:30:00,
2013-07-11 08:35:00,67.6,67.0,29.89,SW,230,1.0,3.0,98,0.00,,---,0.00,169.00,VWS V14.01,2013-07-11 12:35:00,
2013-07-11 08:40:00,67.7,67.1,29.89,SSW,206,1.0,1.0,98,0.00,,---,0.00,185.00,VWS V14.01,2013-07-11 12:40:00,
2013-07-11 08:45:00,67.8,67.2,29.89,SSW,198,0.0,1.0,98,0.00,,---,0.00,227.00,VWS V14.01,2013-07-11 12:45:00,
2013-07-11 08:50:00,67.9,67.3,29.89,ESE,113,1.0,1.0,98,0.00,,---,0.00,185.00,VWS V14.01,2013-07-11 12:50:00,
2013-07-11 08:55:00,68.0,67.4,29.89,NNE,24,6.0,6.0,98,0.00,,---,0.00,167.00,VWS V14.01,2013-07-11 12:55:00,
2013-07-11 09:00:00,68.0,67.1,29.90,NE,46,7.0,7.0,97,0.00,,---,0.00,109.00,VWS V14.01,2013-07-11 13:00:00,
2013-07-11 09:05:00,68.0,67.1,29.90,NE,46,1.0,3.0,97,0.00,,---,0.00,128.00,VWS V14.01,2013-07-11 13:05:00,
2013-07-11 09:10:00,68.1,67.2,29.90,ENE,65,1.0,2.0,97,0.00,,---,0.00,120.00,VWS V14.01,2013-07-11 13:10:00,
2013-07-11 09:15:00,68.1,67.2,29.90,ENE,66,0.0,6.0,97,0.00,,---,0.00,142.00,VWS V14.01,2013-07-11 13:15:00,
2013-07-11 09:16:00,68.1,66.9,29.90,NE,51,2.0,6.0,96,0.00,,---,0.00,135.00,VWS V14.01,2013-07-11 13:16:00,
2013-07-11 09:20:00,68.1,66.9,29.90,East,91,0.0,6.0,96,0.00,,---,0.00,118.00,VWS V14.01,2013-07-11 13:20:00,
2013-07-11 09:21:00,68.1,66.9,29.90,East,80,1.0,5.0,96,0.00,,---,0.00,114.00,VWS V14.01,2013-07-11 13:21:00,
2013-07-11 09:25:00,68.2,67.0,29.90,East,92,1.0,5.0,96,0.00,,---,0.00,132.00,VWS V14.01,2013-07-11 13:25:00,
2013-07-11 09:26:00,68.2,67.0,29.90,ENE,67,2.0,3.0,96,0.00,,---,0.00,132.00,VWS V14.01,2013-07-11 13:26:00,
2013-07-11 09:30:00,68.3,67.1,29.90,ENE,65,2.0,7.0,96,0.00,,---,0.00,137.00,VWS V14.01,2013-07-11 13:30:00,
2013-07-11 09:31:00,68.3,67.1,29.90,ENE,65,5.0,5.0,96,0.00,,---,0.00,139.00,VWS V14.01,2013-07-11 13:31:00,
2013-07-11 09:35:00,68.4,67.2,29.90,NNE,26,2.0,5.0,96,0.00,,---,0.00,200.00,VWS V14.01,2013-07-11 13:35:00,
2013-07-11 09:36:00,68.4,67.2,29.90,ENE,67,0.0,3.0,96,0.00,,---,0.00,211.00,VWS V14.01,2013-07-11 13:36:00,
2013-07-11 09:40:00,68.5,67.0,29.90,ENE,70,0.0,5.0,95,0.00,,---,0.00,153.00,VWS V14.01,2013-07-11 13:40:00,
2013-07-11 09:41:00,68.5,67.0,29.90,ENE,77,0.0,4.0,95,0.00,,---,0.00,190.00,VWS V14.01,2013-07-11 13:41:00,
2013-07-11 09:45:00,68.6,67.1,29.90,ENE,78,1.0,5.0,95,0.00,,---,0.00,193.00,VWS V14.01,2013-07-11 13:45:00,
2013-07-11 09:46:00,68.6,67.1,29.90,ENE,68,1.0,4.0,95,0.00,,---,0.00,216.00,VWS V14.01,2013-07-11 13:46:00,
2013-07-11 09:50:00,68.7,66.9,29.90,ENE,72,2.0,6.0,94,0.00,,---,0.00,188.00,VWS V14.01,2013-07-11 13:50:00,
2013-07-11 09:51:00,68.7,66.9,29.90,ENE,63,2.0,5.0,94,0.00,,---,0.00,178.00,VWS V14.01,2013-07-11 13:51:00,
2013-07-11 09:55:00,68.8,67.0,29.90,NE,55,0.0,6.0,94,0.00,,---,0.00,278.00,VWS V14.01,2013-07-11 13:55:00,
2013-07-11 09:56:00,68.8,67.0,29.90,East,79,5.0,5.0,94,0.00,,---,0.00,251.00,VWS V14.01,2013-07-11 13:56:00,
2013-07-11 10:00:00,68.9,67.1,29.90,ENE,68,2.0,6.0,94,0.00,,---,0.00,220.00,VWS V14.01,2013-07-11 14:00:00,
2013-07-11 10:01:00,68.9,67.1,29.90,NE,43,4.0,5.0,94,0.00,,---,0.00,223.00,VWS V14.01,2013-07-11 14:01:00,
2013-07-11 10:05:00,69.0,66.9,29.90,NE,48,4.0,7.0,93,0.00,,---,0.00,253.00,VWS V14.01,2013-07-11 14:05:00,
2013-07-11 10:06:00,69.0,66.9,29.91,ENE,74,2.0,5.0,93,0.00,,---,0.00,216.00,VWS V14.01,2013-07-11 14:06:00,
2013-07-11 10:10:00,69.1,67.0,29.91,ENE,63,2.0,6.0,93,0.00,,---,0.00,253.00,VWS V14.01,2013-07-11 14:10:00,
2013-07-11 10:11:00,69.2,67.1,29.91,NE,54,2.0,5.0,93,0.00,,---,0.00,292.00,VWS V14.01,2013-07-11 14:11:00,
2013-07-11 10:15:00,69.3,67.2,29.91,East,98,1.0,5.0,93,0.00,,---,0.00,297.00,VWS V14.01,2013-07-11 14:15:00,
2013-07-11 10:16:00,69.4,67.0,29.91,East,86,0.0,9.0,92,0.00,,---,0.00,294.00,VWS V14.01,2013-07-11 14:16:00,
2013-07-11 10:20:00,69.5,67.4,29.91,NE,34,6.0,9.0,93,0.00,,---,0.00,236.00,VWS V14.01,2013-07-11 14:20:00,
2013-07-11 10:21:00,69.5,67.1,29.91,NE,38,4.0,9.0,92,0.00,,---,0.00,279.00,VWS V14.01,2013-07-11 14:21:00,
2013-07-11 10:25:00,69.5,66.8,29.91,ENE,74,4.0,10.0,91,0.00,,---,0.00,281.00,VWS V14.01,2013-07-11 14:25:00,
2013-07-11 10:26:00,69.5,66.4,29.91,NNE,20,1.0,10.0,90,0.00,,---,0.00,304.00,VWS V14.01,2013-07-11 14:26:00,
2013-07-11 10:30:00,69.7,66.6,29.91,ENE,63,3.0,10.0,90,0.00,,---,0.00,341.00,VWS V14.01,2013-07-11 14:30:00,
2013-07-11 10:31:00,69.7,66.3,29.91,ENE,71,0.0,10.0,89,0.00,,---,0.00,348.00,VWS V14.01,2013-07-11 14:31:00,
2013-07-11 10:35:00,69.8,66.1,29.91,NE,39,6.0,10.0,88,0.00,,---,0.00,315.00,VWS V14.01,2013-07-11 14:35:00,
2013-07-11 10:37:00,69.8,66.1,29.91,NE,43,0.0,6.0,88,0.00,,---,0.00,323.00,VWS V14.01,2013-07-11 14:37:00,
2013-07-11 10:40:00,70.0,66.3,29.91,NE,46,1.0,6.0,88,0.00,,---,0.00,362.00,VWS V14.01,2013-07-11 14:40:00,
2013-07-11 10:42:00,70.1,66.7,29.91,NE,50,3.0,4.0,89,0.00,,---,0.00,323.00,VWS V14.01,2013-07-11 14:42:00,
2013-07-11 10:45:00,70.3,66.6,29.91,East,82,3.0,6.0,88,0.00,,---,0.00,334.00,VWS V14.01,2013-07-11 14:45:00,
2013-07-11 10:47:00,70.3,66.2,29.91,East,84,0.0,4.0,87,0.00,,---,0.00,473.00,VWS V14.01,2013-07-11 14:47:00,
2013-07-11 10:50:00,70.4,66.3,29.91,East,84,5.0,9.0,87,0.00,,---,0.00,522.00,VWS V14.01,2013-07-11 14:50:00,
2013-07-11 10:52:00,70.4,65.7,29.91,ENE,72,2.0,6.0,85,0.00,,---,0.00,462.00,VWS V14.01,2013-07-11 14:52:00,
2013-07-11 10:55:00,70.6,65.5,29.91,NE,39,1.0,9.0,84,0.00,,---,0.00,462.00,VWS V14.01,2013-07-11 14:55:00,
2013-07-11 10:57:00,70.7,65.3,29.91,NE,36,4.0,11.0,83,0.00,,---,0.00,679.00,VWS V14.01,2013-07-11 14:57:00,
2013-07-11 11:00:00,70.8,65.0,29.91,NE,41,1.0,11.0,82,0.00,,---,0.00,679.00,VWS V14.01,2013-07-11 15:00:00,
2013-07-11 11:02:00,71.1,65.7,29.91,East,82,1.0,4.0,83,0.00,,---,0.00,772.00,VWS V14.01,2013-07-11 15:02:00,
2013-07-11 11:05:00,71.4,66.0,29.91,ENE,72,5.0,7.0,83,0.00,,---,0.00,773.00,VWS V14.01,2013-07-11 15:05:00,
2013-07-11 11:07:00,71.6,65.8,29.90,NNE,30,5.0,9.0,82,0.00,,---,0.00,789.00,VWS V14.01,2013-07-11 15:07:00,
2013-07-11 11:10:00,71.7,65.9,29.91,NE,38,1.0,9.0,82,0.00,,---,0.00,826.00,VWS V14.01,2013-07-11 15:10:00,
2013-07-11 11:12:00,72.0,66.2,29.91,NNE,23,3.0,6.0,82,0.00,,---,0.00,756.00,VWS V14.01,2013-07-11 15:12:00,
2013-07-11 11:15:00,72.2,66.1,29.91,ENE,72,2.0,11.0,81,0.00,,---,0.00,990.00,VWS V14.01,2013-07-11 15:15:00,
2013-07-11 11:17:00,72.4,65.9,29.91,ENE,71,5.0,6.0,80,0.00,,---,0.00,411.00,VWS V14.01,2013-07-11 15:17:00,
2013-07-11 11:20:00,72.4,65.9,29.91,NNE,22,9.0,9.0,80,0.00,,---,0.00,411.00,VWS V14.01,2013-07-11 15:20:00,
2013-07-11 11:22:00,72.4,65.2,29.91,ENE,62,7.0,11.0,78,0.00,,---,0.00,406.00,VWS V14.01,2013-07-11 15:22:00,
2013-07-11 11:25:00,72.2,64.6,29.91,ENE,73,2.0,11.0,77,0.00,,---,0.00,439.00,VWS V14.01,2013-07-11 15:25:00,
2013-07-11 11:27:00,72.2,65.0,29.91,NE,49,10.0,10.0,78,0.00,,---,0.00,494.00,VWS V14.01,2013-07-11 15:27:00,
2013-07-11 11:30:00,72.2,65.0,29.91,NE,42,9.0,10.0,78,0.00,,---,0.00,547.00,VWS V14.01,2013-07-11 15:30:00,
2013-07-11 11:32:00,72.2,65.0,29.90,NE,36,1.0,11.0,78,0.00,,---,0.00,547.00,VWS V14.01,2013-07-11 15:32:00,
2013-07-11 11:35:00,72.3,64.7,29.90,NE,53,2.0,11.0,77,0.00,,---,0.00,547.00,VWS V14.01,2013-07-11 15:35:00,
2013-07-11 11:37:00,72.4,64.8,29.91,NNE,32,3.0,9.0,77,0.00,,---,0.00,547.00,VWS V14.01,2013-07-11 15:37:00,
2013-07-11 11:40:00,72.6,65.0,29.90,NNE,23,4.0,9.0,77,0.00,,---,0.00,547.00,VWS V14.01,2013-07-11 15:40:00,
2013-07-11 11:42:00,72.6,64.2,29.91,ENE,57,2.0,11.0,75,0.00,,---,0.00,547.00,VWS V14.01,2013-07-11 15:42:00,
2013-07-11 11:45:00,72.8,65.2,29.91,ENE,67,2.0,11.0,77,0.00,,---,0.00,547.00,VWS V14.01,2013-07-11 15:45:00,
2013-07-11 11:47:00,72.7,64.7,29.91,East,83,5.0,10.0,76,0.00,,---,0.00,392.00,VWS V14.01,2013-07-11 15:47:00,
2013-07-11 11:50:00,72.7,65.1,29.91,East,83,3.0,10.0,77,0.00,,---,0.00,1158.00,VWS V14.01,2013-07-11 15:50:00,
2013-07-11 11:52:00,72.8,64.8,29.91,ENE,78,3.0,9.0,76,0.00,,---,0.00,1046.00,VWS V14.01,2013-07-11 15:52:00,
2013-07-11 11:55:00,72.9,65.6,29.91,East,86,7.0,9.0,78,0.00,,---,0.00,1046.00,VWS V14.01,2013-07-11 15:55:00,
2013-07-11 11:58:00,73.1,65.5,29.91,NE,42,4.0,7.0,77,0.00,,---,0.00,503.00,VWS V14.01,2013-07-11 15:58:00,
2013-07-11 12:00:00,73.2,65.2,29.91,NE,46,3.0,7.0,76,0.00,,---,0.00,577.00,VWS V14.01,2013-07-11 16:00:00,
2013-07-11 12:03:00,73.3,65.7,29.91,NE,45,4.0,7.0,77,0.00,,---,0.00,475.00,VWS V14.01,2013-07-11 16:03:00,
2013-07-11 12:05:00,73.4,65.8,29.91,NE,38,5.0,7.0,77,0.00,,---,0.00,788.00,VWS V14.01,2013-07-11 16:05:00,
2013-07-11 12:08:00,73.4,65.8,29.91,NE,47,2.0,5.0,77,0.00,,---,0.00,431.00,VWS V14.01,2013-07-11 16:08:00,
2013-07-11 12:10:00,73.5,65.9,29.91,NE,43,3.0,5.0,77,0.00,,---,0.00,399.00,VWS V14.01,2013-07-11 16:10:00,
2013-07-11 12:13:00,73.5,65.1,29.91,NNE,19,3.0,7.0,75,0.00,,---,0.00,357.00,VWS V14.01,2013-07-11 16:13:00,
2013-07-11 12:15:00,73.4,65.8,29.91,NNE,30,1.0,7.0,77,0.00,,---,0.00,332.00,VWS V14.01,2013-07-11 16:15:00,
2013-07-11 12:18:00,73.3,65.7,29.92,NE,36,4.0,7.0,77,0.00,,---,0.00,336.00,VWS V14.01,2013-07-11 16:18:00,
2013-07-11 12:20:00,73.3,64.9,29.91,NE,43,2.0,7.0,75,0.00,,---,0.00,371.00,VWS V14.01,2013-07-11 16:20:00,
2013-07-11 12:23:00,73.1,65.1,29.92,ENE,59,5.0,8.0,76,0.00,,---,0.00,497.00,VWS V14.01,2013-07-11 16:23:00,
2013-07-11 12:25:00,73.1,64.7,29.92,NE,34,3.0,9.0,75,0.00,,---,0.00,561.00,VWS V14.01,2013-07-11 16:25:00,
2013-07-11 12:28:00,73.1,65.1,29.92,NNE,20,4.0,6.0,76,0.00,,---,0.00,482.00,VWS V14.01,2013-07-11 16:28:00,
2013-07-11 12:30:00,73.1,64.3,29.92,NE,38,2.0,6.0,74,0.00,,---,0.00,424.00,VWS V14.01,2013-07-11 16:30:00,
2013-07-11 12:33:00,73.2,65.2,29.92,NNE,23,1.0,7.0,76,0.00,,---,0.00,490.00,VWS V14.01,2013-07-11 16:33:00,
2013-07-11 12:35:00,73.3,65.3,29.92,NE,35,1.0,7.0,76,0.00,,---,0.00,485.00,VWS V14.01,2013-07-11 16:35:00,
2013-07-11 12:38:00,73.4,65.4,29.92,NE,43,2.0,4.0,76,0.00,,---,0.00,450.00,VWS V14.01,2013-07-11 16:38:00,
2013-07-11 12:40:00,73.5,65.1,29.92,NE,41,2.0,6.0,75,0.00,,---,0.00,471.00,VWS V14.01,2013-07-11 16:40:00,
2013-07-11 12:43:00,73.5,65.1,29.92,NE,39,2.0,5.0,75,0.00,,---,0.00,452.00,VWS V14.01,2013-07-11 16:43:00,
2013-07-11 12:45:00,73.5,65.1,29.92,NE,37,2.0,5.0,75,0.00,,---,0.00,464.00,VWS V14.01,2013-07-11 16:45:00,
2013-07-11 12:48:00,73.6,65.2,29.92,ENE,63,0.0,5.0,75,0.00,,---,0.00,587.00,VWS V14.01,2013-07-11 16:48:00,
2013-07-11 12:50:00,73.7,65.7,29.92,ENE,78,2.0,5.0,76,0.00,,---,0.00,529.00,VWS V14.01,2013-07-11 16:50:00,
2013-07-11 12:53:00,73.9,65.1,29.92,NE,38,4.0,5.0,74,0.00,,---,0.00,573.00,VWS V14.01,2013-07-11 16:53:00,
2013-07-11 12:55:00,73.9,65.1,29.92,NE,37,1.0,5.0,74,0.00,,---,0.00,503.00,VWS V14.01,2013-07-11 16:55:00,
2013-07-11 12:58:00,74.0,64.4,29.91,NE,46,1.0,7.0,72,0.00,,---,0.00,445.00,VWS V14.01,2013-07-11 16:58:00,
2013-07-11 13:00:00,74.0,64.8,29.91,ENE,62,1.0,7.0,73,0.00,,---,0.00,455.00,VWS V14.01,2013-07-11 17:00:00,
2013-07-11 13:03:00,74.1,64.5,29.91,ENE,76,4.0,9.0,72,0.00,,---,0.00,492.00,VWS V14.01,2013-07-11 17:03:00,
2013-07-11 13:05:00,74.1,64.5,29.91,NE,49,2.0,9.0,72,0.00,,---,0.00,485.00,VWS V14.01,2013-07-11 17:05:00,
2013-07-11 13:08:00,74.1,64.9,29.91,NE,44,1.0,7.0,73,0.00,,---,0.00,499.00,VWS V14.01,2013-07-11 17:08:00,
2013-07-11 13:10:00,74.1,64.9,29.91,ENE,62,1.0,7.0,73,0.00,,---,0.00,1027.00,VWS V14.01,2013-07-11 17:10:00,
2013-07-11 13:14:00,74.5,66.1,29.91,North,5,4.0,4.0,75,0.00,,---,0.00,1216.00,VWS V14.01,2013-07-11 17:14:00,
2013-07-11 13:15:00,74.6,66.2,29.91,NE,45,3.0,4.0,75,0.00,,---,0.00,933.00,VWS V14.01,2013-07-11 17:15:00,
2013-07-11 13:19:00,75.0,65.8,29.91,ENE,67,1.0,5.0,73,0.00,,---,0.00,559.00,VWS V14.01,2013-07-11 17:19:00,
2013-07-11 13:20:00,75.0,65.8,29.91,ENE,76,0.0,5.0,73,0.00,,---,0.00,585.00,VWS V14.01,2013-07-11 17:20:00,
2013-07-11 13:24:00,75.2,65.6,29.91,NE,45,5.0,6.0,72,0.00,,---,0.00,439.00,VWS V14.01,2013-07-11 17:24:00,
2013-07-11 13:25:00,75.2,65.2,29.91,NE,52,0.0,6.0,71,0.00,,---,0.00,431.00,VWS V14.01,2013-07-11 17:25:00,
2013-07-11 13:29:00,75.0,64.6,29.90,NE,38,1.0,7.0,70,0.00,,---,0.00,445.00,VWS V14.01,2013-07-11 17:29:00,
2013-07-11 13:30:00,75.0,65.0,29.90,NE,41,1.0,11.0,71,0.00,,---,0.00,445.00,VWS V14.01,2013-07-11 17:30:00,
2013-07-11 13:34:00,74.9,65.3,29.90,East,80,0.0,4.0,72,0.00,,---,0.00,448.00,VWS V14.01,2013-07-11 17:34:00,
2013-07-11 13:35:00,74.9,65.3,29.90,ENE,61,1.0,4.0,72,0.00,,---,0.00,448.00,VWS V14.01,2013-07-11 17:35:00,
2013-07-11 13:39:00,74.8,65.2,29.90,NE,52,5.0,5.0,72,0.00,,---,0.00,450.00,VWS V14.01,2013-07-11 17:39:00,
2013-07-11 13:40:00,74.8,65.2,29.90,NE,52,5.0,5.0,72,0.00,,---,0.00,450.00,VWS V14.01,2013-07-11 17:40:00,
2013-07-11 13:44:00,74.9,65.7,29.90,NNE,21,4.0,5.0,73,0.00,,---,0.00,422.00,VWS V14.01,2013-07-11 17:44:00,
2013-07-11 13:45:00,74.9,65.7,29.90,NNE,21,4.0,5.0,73,0.00,,---,0.00,422.00,VWS V14.01,2013-07-11 17:45:00,
2013-07-11 13:49:00,75.1,65.9,29.90,NE,46,3.0,3.0,73,0.00,,---,0.00,396.00,VWS V14.01,2013-07-11 17:49:00,
2013-07-11 13:50:00,75.1,65.9,29.90,NE,46,3.0,4.0,73,0.00,,---,0.00,396.00,VWS V14.01,2013-07-11 17:50:00,
2013-07-11 13:54:00,75.1,65.5,29.90,North,11,4.0,4.0,72,0.00,,---,0.00,436.00,VWS V14.01,2013-07-11 17:54:00,
2013-07-11 13:55:00,75.1,65.5,29.90,North,11,4.0,4.0,72,0.00,,---,0.00,436.00,VWS V14.01,2013-07-11 17:55:00,
2013-07-11 13:59:00,75.2,65.6,29.90,NNE,24,3.0,5.0,72,0.00,,---,0.00,487.00,VWS V14.01,2013-07-11 17:59:00,
2013-07-11 14:00:00,75.2,65.6,29.90,NNE,24,3.0,5.0,72,0.00,,---,0.00,487.00,VWS V14.01,2013-07-11 18:00:00,
2013-07-11 14:04:00,75.3,65.3,29.90,NE,34,3.0,6.0,71,0.00,,---,0.00,536.00,VWS V14.01,2013-07-11 18:04:00,
2013-07-11 14:05:00,75.3,65.3,29.90,NE,34,3.0,6.0,71,0.00,,---,0.00,536.00,VWS V14.01,2013-07-11 18:05:00,
2013-07-11 14:09:00,75.3,65.3,29.90,NE,52,0.0,6.0,71,0.00,,---,0.00,577.00,VWS V14.01,2013-07-11 18:09:00,
2013-07-11 14:10:00,75.3,65.3,29.90,NE,52,0.0,6.0,71,0.00,,---,0.00,577.00,VWS V14.01,2013-07-11 18:10:00,
2013-07-11 14:15:00,75.5,65.4,29.90,NE,49,2.0,2.0,71,0.00,,---,0.00,541.00,VWS V14.01,2013-07-11 18:15:00,
2013-07-11 14:20:00,75.5,65.4,29.90,NNE,19,2.0,6.0,71,0.00,,---,0.00,339.00,VWS V14.01,2013-07-11 18:20:00,
2013-07-11 14:25:00,75.3,64.8,29.90,NE,41,3.0,3.0,70,0.00,,---,0.00,346.00,VWS V14.01,2013-07-11 18:25:00,
2013-07-11 14:30:00,74.9,64.9,29.90,ENE,61,4.0,6.0,71,0.00,,---,0.00,227.00,VWS V14.01,2013-07-11 18:30:00,
2013-07-11 14:35:00,74.6,64.6,29.90,NE,40,3.0,3.0,71,0.00,,---,0.00,202.00,VWS V14.01,2013-07-11 18:35:00,
2013-07-11 14:40:00,74.4,65.2,29.90,NE,35,3.0,5.0,73,0.00,,---,0.00,260.00,VWS V14.01,2013-07-11 18:40:00,
2013-07-11 14:45:00,74.4,65.6,29.90,NE,43,3.0,5.0,74,0.00,,---,0.00,385.00,VWS V14.01,2013-07-11 18:45:00,
2013-07-11 14:50:00,74.3,65.1,29.90,NE,55,0.0,5.0,73,0.00,,---,0.00,348.00,VWS V14.01,2013-07-11 18:50:00,
2013-07-11 14:51:00,74.3,65.5,29.90,NE,47,2.0,4.0,74,0.00,,---,0.00,345.00,VWS V14.01,2013-07-11 18:51:00,
2013-07-11 14:55:00,74.3,65.5,29.91,NE,42,2.0,6.0,74,0.00,,---,0.00,353.00,VWS V14.01,2013-07-11 18:55:00,
2013-07-11 14:56:00,74.3,65.5,29.91,NE,37,2.0,3.0,74,0.00,,---,0.00,366.00,VWS V14.01,2013-07-11 18:56:00,
2013-07-11 15:00:00,74.3,65.1,29.90,NNE,26,1.0,3.0,73,0.00,,---,0.00,415.00,VWS V14.01,2013-07-11 19:00:00,
2013-07-11 15:01:00,74.3,65.5,29.90,NNE,31,1.0,4.0,74,0.00,,---,0.00,431.00,VWS V14.01,2013-07-11 19:01:00,
2013-07-11 15:05:00,74.3,64.7,29.90,NE,54,3.0,5.0,72,0.00,,---,0.00,436.00,VWS V14.01,2013-07-11 19:05:00,
2013-07-11 15:06:00,74.3,64.7,29.90,NE,51,2.0,3.0,72,0.00,,---,0.00,457.00,VWS V14.01,2013-07-11 19:06:00,
2013-07-11 15:10:00,74.3,65.1,29.90,NE,39,0.0,4.0,73,0.00,,---,0.00,592.00,VWS V14.01,2013-07-11 19:10:00,
2013-07-11 15:11:00,74.4,65.2,29.90,NNE,24,4.0,4.0,73,0.00,,---,0.00,592.00,VWS V14.01,2013-07-11 19:11:00,
2013-07-11 15:15:00,74.5,65.7,29.90,NNE,13,1.0,4.0,74,0.00,,---,0.00,422.00,VWS V14.01,2013-07-11 19:15:00,
2013-07-11 15:16:00,74.6,65.8,29.90,NE,38,2.0,3.0,74,0.00,,---,0.00,397.00,VWS V14.01,2013-07-11 19:16:00,
2013-07-11 15:20:00,74.8,66.0,29.89,NNE,24,0.0,4.0,74,0.00,,---,0.00,524.00,VWS V14.01,2013-07-11 19:20:00,
2013-07-11 15:21:00,74.9,65.7,29.89,NNE,24,1.0,3.0,73,0.00,,---,0.00,432.00,VWS V14.01,2013-07-11 19:21:00,
2013-07-11 15:25:00,75.1,65.9,29.90,NNE,26,1.0,3.0,73,0.00,,---,0.00,362.00,VWS V14.01,2013-07-11 19:25:00,
2013-07-11 15:26:00,75.2,66.0,29.90,NNE,25,0.0,3.0,73,0.00,,---,0.00,360.00,VWS V14.01,2013-07-11 19:26:00,
2013-07-11 15:30:00,75.3,65.7,29.90,ENE,67,4.0,4.0,72,0.00,,---,0.00,413.00,VWS V14.01,2013-07-11 19:30:00,
2013-07-11 15:31:00,75.2,65.2,29.90,East,80,1.0,4.0,71,0.00,,---,0.00,443.00,VWS V14.01,2013-07-11 19:31:00,
2013-07-11 15:35:00,75.1,65.1,29.89,ENE,78,2.0,5.0,71,0.00,,---,0.00,533.00,VWS V14.01,2013-07-11 19:35:00,
2013-07-11 15:36:00,75.1,65.1,29.89,ENE,76,0.0,3.0,71,0.00,,---,0.00,664.00,VWS V14.01,2013-07-11 19:36:00,
2013-07-11 15:40:00,75.2,65.2,29.89,NE,37,3.0,4.0,71,0.00,,---,0.00,1016.00,VWS V14.01,2013-07-11 19:40:00,
2013-07-11 15:41:00,75.3,65.3,29.89,NE,43,1.0,5.0,71,0.00,,---,0.00,1039.00,VWS V14.01,2013-07-11 19:41:00,
2013-07-11 15:45:00,75.5,65.4,29.89,ENE,58,2.0,5.0,71,0.00,,---,0.00,1039.00,VWS V14.01,2013-07-11 19:45:00,
2013-07-11 15:46:00,75.7,65.6,29.89,East,79,4.0,5.0,71,0.00,,---,0.00,1013.00,VWS V14.01,2013-07-11 19:46:00,
2013-07-11 15:50:00,75.8,65.3,29.89,ENE,58,4.0,5.0,70,0.00,,---,0.00,954.00,VWS V14.01,2013-07-11 19:50:00,
2013-07-11 15:51:00,75.9,65.4,29.89,ENE,58,0.0,7.0,70,0.00,,---,0.00,1007.00,VWS V14.01,2013-07-11 19:51:00,
2013-07-11 15:55:00,76.1,65.6,29.89,NE,52,0.0,8.0,70,0.00,,---,0.00,1002.00,VWS V14.01,2013-07-11 19:55:00,
2013-07-11 15:56:00,76.2,66.1,29.89,ENE,78,3.0,4.0,71,0.00,,---,0.00,290.00,VWS V14.01,2013-07-11 19:56:00,
2013-07-11 16:00:00,76.2,65.7,29.89,ENE,58,2.0,6.0,70,0.00,,---,0.00,181.00,VWS V14.01,2013-07-11 20:00:00,
2013-07-11 16:01:00,76.1,65.6,29.89,NE,36,3.0,6.0,70,0.00,,---,0.00,162.00,VWS V14.01,2013-07-11 20:01:00,
2013-07-11 16:05:00,75.9,65.8,29.89,East,79,4.0,6.0,71,0.00,,---,0.00,213.00,VWS V14.01,2013-07-11 20:05:00,
2013-07-11 16:06:00,75.7,65.6,29.89,East,80,2.0,5.0,71,0.00,,---,0.00,246.00,VWS V14.01,2013-07-11 20:06:00,
2013-07-11 16:10:00,75.5,65.0,29.89,East,82,1.0,5.0,70,0.00,,---,0.00,958.00,VWS V14.01,2013-07-11 20:10:00,
2013-07-11 16:11:00,75.5,65.4,29.89,ENE,60,1.0,3.0,71,0.00,,---,0.00,919.00,VWS V14.01,2013-07-11 20:11:00,
2013-07-11 16:15:00,75.5,66.2,29.89,ENE,60,0.0,3.0,73,0.00,,---,0.00,854.00,VWS V14.01,2013-07-11 20:15:00,
2013-07-11 16:17:00,75.7,65.6,29.89,NE,42,1.0,6.0,71,0.00,,---,0.00,833.00,VWS V14.01,2013-07-11 20:17:00,
2013-07-11 16:20:00,75.9,66.2,29.89,ENE,67,2.0,6.0,72,0.00,,---,0.00,819.00,VWS V14.01,2013-07-11 20:20:00,
2013-07-11 16:22:00,76.0,65.5,29.89,NE,40,0.0,7.0,70,0.00,,---,0.00,315.00,VWS V14.01,2013-07-11 20:22:00,
2013-07-11 16:25:00,76.0,65.1,29.89,NE,40,3.0,7.0,69,0.00,,---,0.00,513.00,VWS V14.01,2013-07-11 20:25:00,
2013-07-11 16:27:00,76.0,65.1,29.89,NE,48,3.0,4.0,69,0.00,,---,0.00,884.00,VWS V14.01,2013-07-11 20:27:00,
2013-07-11 16:30:00,76.0,65.5,29.89,NE,38,6.0,6.0,70,0.00,,---,0.00,403.00,VWS V14.01,2013-07-11 20:30:00,
2013-07-11 16:32:00,75.9,65.0,29.89,East,90,2.0,10.0,69,0.00,,---,0.00,299.00,VWS V14.01,2013-07-11 20:32:00,
2013-07-11 16:35:00,75.8,65.3,29.89,East,90,1.0,10.0,70,0.00,,---,0.00,251.00,VWS V14.01,2013-07-11 20:35:00,
2013-07-11 16:38:00,75.7,65.6,29.89,NNE,32,4.0,5.0,71,0.00,,---,0.00,290.00,VWS V14.01,2013-07-11 20:38:00,
2013-07-11 16:40:00,75.6,65.1,29.89,NNE,32,2.0,5.0,70,0.00,,---,0.00,290.00,VWS V14.01,2013-07-11 20:40:00,
2013-07-11 16:43:00,75.5,65.4,29.89,NE,43,5.0,7.0,71,0.00,,---,0.00,383.00,VWS V14.01,2013-07-11 20:43:00,
2013-07-11 16:45:00,75.5,65.8,29.89,NE,49,3.0,7.0,72,0.00,,---,0.00,383.00,VWS V14.01,2013-07-11 20:45:00,
2013-07-11 16:48:00,75.5,65.0,29.88,NE,41,4.0,6.0,70,0.00,,---,0.00,824.00,VWS V14.01,2013-07-11 20:48:00,
2013-07-11 16:50:00,75.6,65.1,29.88,ENE,65,3.0,6.0,70,0.00,,---,0.00,784.00,VWS V14.01,2013-07-11 20:50:00,
2013-07-11 16:53:00,75.8,65.7,29.89,NE,42,4.0,4.0,71,0.00,,---,0.00,784.00,VWS V14.01,2013-07-11 20:53:00,
2013-07-11 16:55:00,75.9,64.6,29.89,NE,56,1.0,5.0,68,0.00,,---,0.00,784.00,VWS V14.01,2013-07-11 20:55:00,
2013-07-11 16:58:00,76.0,64.7,29.88,ENE,69,3.0,7.0,68,0.00,,---,0.00,192.00,VWS V14.01,2013-07-11 20:58:00,
2013-07-11 17:00:00,75.9,64.2,29.88,ENE,61,2.0,7.0,67,0.00,,---,0.00,200.00,VWS V14.01,2013-07-11 21:00:00,
2013-07-11 17:03:00,75.8,64.5,29.88,ENE,74,3.0,4.0,68,0.00,,---,0.00,236.00,VWS V14.01,2013-07-11 21:03:00,
2013-07-11 17:05:00,75.7,64.4,29.88,NE,44,2.0,4.0,68,0.00,,---,0.00,278.00,VWS V14.01,2013-07-11 21:05:00,
2013-07-11 17:08:00,75.6,64.3,29.88,NE,46,2.0,7.0,68,0.00,,---,0.00,288.00,VWS V14.01,2013-07-11 21:08:00,
2013-07-11 17:10:00,75.5,64.6,29.88,NE,35,2.0,7.0,69,0.00,,---,0.00,236.00,VWS V14.01,2013-07-11 21:10:00,
2013-07-11 17:13:00,75.4,64.5,29.88,NE,34,1.0,3.0,69,0.00,,---,0.00,200.00,VWS V14.01,2013-07-11 21:13:00,
2013-07-11 17:15:00,75.4,64.5,29.88,NE,36,0.0,4.0,69,0.00,,---,0.00,199.00,VWS V14.01,2013-07-11 21:15:00,
2013-07-11 17:18:00,75.3,65.3,29.88,NE,36,0.0,2.0,71,0.00,,---,0.00,179.00,VWS V14.01,2013-07-11 21:18:00,
2013-07-11 17:20:00,75.3,65.7,29.88,NNE,29,0.0,4.0,72,0.00,,---,0.00,174.00,VWS V14.01,2013-07-11 21:20:00,
2013-07-11 17:23:00,75.3,65.3,29.89,NNE,21,1.0,5.0,71,0.00,,---,0.00,176.00,VWS V14.01,2013-07-11 21:23:00,
2013-07-11 17:25:00,75.3,64.8,29.89,NE,41,4.0,6.0,70,0.00,,---,0.00,179.00,VWS V14.01,2013-07-11 21:25:00,
2013-07-11 17:28:00,75.2,65.2,29.89,NNE,20,3.0,6.0,71,0.00,,---,0.00,183.00,VWS V14.01,2013-07-11 21:28:00,
2013-07-11 17:30:00,75.1,65.1,29.89,NNE,15,0.0,6.0,71,0.00,,---,0.00,188.00,VWS V14.01,2013-07-11 21:30:00,
2013-07-11 17:33:00,75.0,65.0,29.89,NNE,26,0.0,4.0,71,0.00,,---,0.00,200.00,VWS V14.01,2013-07-11 21:33:00,
2013-07-11 17:35:00,75.0,64.6,29.89,NNE,13,1.0,6.0,70,0.00,,---,0.00,188.00,VWS V14.01,2013-07-11 21:35:00,
2013-07-11 17:38:00,74.7,63.5,29.89,NE,38,2.0,9.0,68,0.00,,---,0.00,176.00,VWS V14.01,2013-07-11 21:38:00,
2013-07-11 17:40:00,74.6,63.8,29.89,NNE,26,0.0,9.0,69,0.00,,---,0.00,183.00,VWS V14.01,2013-07-11 21:40:00,
2013-07-11 17:43:00,74.5,63.7,29.89,NNE,15,2.0,5.0,69,0.00,,---,0.00,197.00,VWS V14.01,2013-07-11 21:43:00,
2013-07-11 17:45:00,74.4,63.2,29.89,NNE,15,2.0,8.0,68,0.00,,---,0.00,209.00,VWS V14.01,2013-07-11 21:45:00,
2013-07-11 17:48:00,74.3,63.5,29.89,NE,39,3.0,6.0,69,0.00,,---,0.00,232.00,VWS V14.01,2013-07-11 21:48:00,
2013-07-11 17:50:00,74.3,63.1,29.89,NNE,17,2.0,6.0,68,0.00,,---,0.00,234.00,VWS V14.01,2013-07-11 21:50:00,
2013-07-11 17:53:00,74.3,63.5,29.89,NNE,24,2.0,6.0,69,0.00,,---,0.00,250.00,VWS V14.01,2013-07-11 21:53:00,
2013-07-11 17:55:00,74.3,63.9,29.89,NNE,24,1.0,6.0,70,0.00,,---,0.00,274.00,VWS V14.01,2013-07-11 21:55:00,
2013-07-11 17:58:00,74.4,63.6,29.89,North,350,0.0,6.0,69,0.00,,---,0.00,550.00,VWS V14.01,2013-07-11 21:58:00,
2013-07-11 18:00:00,74.4,63.6,29.89,North,5,3.0,6.0,69,0.00,,---,0.00,550.00,VWS V14.01,2013-07-11 22:00:00,
2013-07-11 18:03:00,74.6,63.8,29.89,NNE,22,4.0,7.0,69,0.00,,---,0.00,381.00,VWS V14.01,2013-07-11 22:03:00,
2013-07-11 18:05:00,74.6,63.8,29.89,North,5,1.0,7.0,69,0.00,,---,0.00,316.00,VWS V14.01,2013-07-11 22:05:00,
2013-07-11 18:08:00,74.7,63.0,29.89,North,360,6.0,10.0,67,0.00,,---,0.00,239.00,VWS V14.01,2013-07-11 22:08:00,
2013-07-11 18:10:00,74.7,63.0,29.89,NNE,23,3.0,10.0,67,0.00,,---,0.00,230.00,VWS V14.01,2013-07-11 22:10:00,
2013-07-11 18:13:00,74.6,62.5,29.89,North,5,4.0,12.0,66,0.00,,---,0.00,220.00,VWS V14.01,2013-07-11 22:13:00,
2013-07-11 18:15:00,74.5,62.4,29.89,North,355,2.0,12.0,66,0.00,,---,0.00,367.00,VWS V14.01,2013-07-11 22:15:00,
2013-07-11 18:19:00,74.6,63.3,29.89,North,5,2.0,4.0,68,0.00,,---,0.00,557.00,VWS V14.01,2013-07-11 22:19:00,
2013-07-11 18:20:00,74.7,63.9,29.89,North,355,3.0,4.0,69,0.00,,---,0.00,541.00,VWS V14.01,2013-07-11 22:20:00,
2013-07-11 18:24:00,75.1,63.4,29.89,North,11,1.0,11.0,67,0.00,,---,0.00,450.00,VWS V14.01,2013-07-11 22:24:00,
2013-07-11 18:25:00,75.2,63.9,29.89,NNW,347,7.0,11.0,68,0.00,,---,0.00,450.00,VWS V14.01,2013-07-11 22:25:00,
2013-07-11 18:29:00,75.4,63.3,29.90,North,5,4.0,10.0,66,0.00,,---,0.00,200.00,VWS V14.01,2013-07-11 22:29:00,
2013-07-11 18:30:00,75.4,62.8,29.90,North,5,3.0,10.0,65,0.00,,---,0.00,186.00,VWS V14.01,2013-07-11 22:30:00,
2013-07-11 18:34:00,75.2,62.6,29.90,NNW,348,5.0,9.0,65,0.00,,---,0.00,171.00,VWS V14.01,2013-07-11 22:34:00,
2013-07-11 18:35:00,75.1,62.5,29.90,North,355,6.0,9.0,65,0.00,,---,0.00,174.00,VWS V14.01,2013-07-11 22:35:00,
2013-07-11 18:39:00,74.6,61.6,29.90,NNW,340,7.0,14.0,64,0.00,,---,0.00,158.00,VWS V14.01,2013-07-11 22:39:00,
2013-07-11 18:40:00,74.5,61.5,29.90,North,355,5.0,14.0,64,0.00,,---,0.00,158.00,VWS V14.01,2013-07-11 22:40:00,
2013-07-11 18:44:00,74.1,62.0,29.90,NNE,19,3.0,9.0,66,0.00,,---,0.00,178.00,VWS V14.01,2013-07-11 22:44:00,
2013-07-11 18:45:00,74.1,62.0,29.90,NNE,19,3.0,9.0,66,0.00,,---,0.00,178.00,VWS V14.01,2013-07-11 22:45:00,
2013-07-11 18:49:00,73.9,61.8,29.90,NNE,17,0.0,6.0,66,0.00,,---,0.00,141.00,VWS V14.01,2013-07-11 22:49:00,
2013-07-11 18:50:00,74.0,61.9,29.90,NNE,23,3.0,6.0,66,0.00,,---,0.00,141.00,VWS V14.01,2013-07-11 22:50:00,
2013-07-11 18:54:00,73.9,61.8,29.91,North,355,6.0,6.0,66,0.00,,---,0.00,248.00,VWS V14.01,2013-07-11 22:54:00,
2013-07-11 18:55:00,73.9,61.8,29.91,North,351,6.0,6.0,66,0.00,,---,0.00,257.00,VWS V14.01,2013-07-11 22:55:00,
2013-07-11 18:59:00,73.8,61.3,29.90,North,350,2.0,9.0,65,0.00,,---,0.00,176.00,VWS V14.01,2013-07-11 22:59:00,
2013-07-11 19:00:00,73.8,61.3,29.90,North,5,1.0,9.0,65,0.00,,---,0.00,185.00,VWS V14.01,2013-07-11 23:00:00,
2013-07-11 19:04:00,73.8,60.9,29.90,NNE,21,3.0,7.0,64,0.00,,---,0.00,179.00,VWS V14.01,2013-07-11 23:04:00,
2013-07-11 19:05:00,73.8,60.9,29.90,North,5,3.0,7.0,64,0.00,,---,0.00,179.00,VWS V14.01,2013-07-11 23:05:00,
2013-07-11 19:09:00,73.6,59.8,29.90,NNW,344,3.0,7.0,62,0.00,,---,0.00,111.00,VWS V14.01,2013-07-11 23:09:00,
2013-07-11 19:10:00,73.6,59.8,29.90,NNW,344,3.0,7.0,62,0.00,,---,0.00,111.00,VWS V14.01,2013-07-11 23:10:00,
2013-07-11 19:15:00,73.3,59.5,29.91,NE,38,4.0,7.0,62,0.00,,---,0.00,104.00,VWS V14.01,2013-07-11 23:15:00,
2013-07-11 19:20:00,73.0,59.7,29.90,NNE,26,2.0,11.0,63,0.00,,---,0.00,105.00,VWS V14.01,2013-07-11 23:20:00,
2013-07-11 19:25:00,72.6,58.8,29.90,NE,50,0.0,7.0,62,0.00,,---,0.00,137.00,VWS V14.01,2013-07-11 23:25:00,
2013-07-11 19:30:00,72.5,59.6,29.90,North,355,4.0,4.0,64,0.00,,---,0.00,253.00,VWS V14.01,2013-07-11 23:30:00,
2013-07-11 19:35:00,72.5,59.2,29.90,North,360,3.0,5.0,63,0.00,,---,0.00,76.00,VWS V14.01,2013-07-11 23:35:00,
2013-07-11 19:40:00,72.3,59.0,29.90,NNE,21,1.0,5.0,63,0.00,,---,0.00,90.00,VWS V14.01,2013-07-11 23:40:00,
2013-07-11 19:45:00,72.1,59.3,29.91,NE,51,2.0,9.0,64,0.00,,---,0.00,79.00,VWS V14.01,2013-07-11 23:45:00,
2013-07-11 19:46:00,72.1,59.3,29.90,NE,36,5.0,6.0,64,0.00,,---,0.00,128.00,VWS V14.01,2013-07-11 23:46:00,
2013-07-11 19:50:00,72.0,59.6,29.90,North,10,3.0,7.0,65,0.00,,---,0.00,156.00,VWS V14.01,2013-07-11 23:50:00,
2013-07-11 19:51:00,72.0,59.6,29.90,NE,34,5.0,6.0,65,0.00,,---,0.00,149.00,VWS V14.01,2013-07-11 23:51:00,
2013-07-11 19:55:00,72.0,59.6,29.91,NNE,24,1.0,6.0,65,0.00,,---,0.00,139.00,VWS V14.01,2013-07-11 23:55:00,
2013-07-11 19:56:00,72.0,59.6,29.91,NNE,26,2.0,3.0,65,0.00,,---,0.00,134.00,VWS V14.01,2013-07-11 23:56:00,
2013-07-11 20:00:00,72.0,60.0,29.91,NNE,24,0.0,3.0,66,0.00,,---,0.00,123.00,VWS V14.01,2013-07-12 00:00:00,
2013-07-11 20:01:00,72.0,60.0,29.90,NNE,17,4.0,4.0,66,0.00,,---,0.00,118.00,VWS V14.01,2013-07-12 00:01:00,
2013-07-11 20:05:00,72.0,59.2,29.91,NE,52,3.0,6.0,64,0.00,,---,0.00,114.00,VWS V14.01,2013-07-12 00:05:00,
2013-07-11 20:06:00,71.9,58.6,29.91,NNE,32,1.0,5.0,63,0.00,,---,0.00,113.00,VWS V14.01,2013-07-12 00:06:00,
2013-07-11 20:10:00,71.9,58.6,29.91,NE,37,2.0,7.0,63,0.00,,---,0.00,102.00,VWS V14.01,2013-07-12 00:10:00,
2013-07-11 20:11:00,71.9,58.6,29.91,NE,37,0.0,3.0,63,0.00,,---,0.00,98.00,VWS V14.01,2013-07-12 00:11:00,
2013-07-11 20:15:00,71.8,59.0,29.91,NE,40,3.0,4.0,64,0.00,,---,0.00,95.00,VWS V14.01,2013-07-12 00:15:00,
2013-07-11 20:16:00,71.7,58.9,29.91,NE,36,0.0,3.0,64,0.00,,---,0.00,90.00,VWS V14.01,2013-07-12 00:16:00,
2013-07-11 20:20:00,71.7,59.3,29.91,NE,36,1.0,3.0,65,0.00,,---,0.00,86.00,VWS V14.01,2013-07-12 00:20:00,
2013-07-11 20:22:00,71.7,59.3,29.91,NE,36,0.0,3.0,65,0.00,,---,0.00,77.00,VWS V14.01,2013-07-12 00:22:00,
2013-07-11 20:25:00,71.6,59.2,29.91,NNE,32,3.0,3.0,65,0.00,,---,0.00,69.00,VWS V14.01,2013-07-12 00:25:00,
2013-07-11 20:27:00,71.5,59.1,29.91,NE,37,5.0,5.0,65,0.00,,---,0.00,58.00,VWS V14.01,2013-07-12 00:27:00,
2013-07-11 20:30:00,71.4,59.0,29.91,NE,37,1.0,5.0,65,0.00,,---,0.00,47.00,VWS V14.01,2013-07-12 00:30:00,
2013-07-11 20:32:00,71.3,58.9,29.91,NE,36,1.0,2.0,65,0.00,,---,0.00,40.00,VWS V14.01,2013-07-12 00:32:00,
2013-07-11 20:35:00,71.2,59.3,29.91,NNE,27,1.0,3.0,66,0.00,,---,0.00,35.00,VWS V14.01,2013-07-12 00:35:00,
2013-07-11 20:37:00,71.1,59.2,29.91,NNE,22,1.0,2.0,66,0.00,,---,0.00,30.00,VWS V14.01,2013-07-12 00:37:00,
2013-07-11 20:40:00,70.9,59.0,29.91,NNE,13,0.0,4.0,66,0.00,,---,0.00,26.00,VWS V14.01,2013-07-12 00:40:00,
2013-07-11 20:42:00,70.8,58.9,29.91,NNE,16,2.0,2.0,66,0.00,,---,0.00,23.00,VWS V14.01,2013-07-12 00:42:00,
2013-07-11 20:45:00,70.7,59.2,29.91,NNE,17,0.0,3.0,67,0.00,,---,0.00,18.00,VWS V14.01,2013-07-12 00:45:00,
2013-07-11 20:47:00,70.5,59.0,29.91,NNE,17,2.0,2.0,67,0.00,,---,0.00,14.00,VWS V14.01,2013-07-12 00:47:00,
2013-07-11 20:50:00,70.4,58.9,29.91,NNE,17,2.0,3.0,67,0.00,,---,0.00,12.00,VWS V14.01,2013-07-12 00:50:00,
2013-07-11 20:53:00,70.2,58.7,29.91,North,360,0.0,9.0,67,0.00,,---,0.00,9.00,VWS V14.01,2013-07-12 00:53:00,
2013-07-11 20:55:00,70.1,58.7,29.91,NNE,27,0.0,9.0,67,0.00,,---,0.00,9.00,VWS V14.01,2013-07-12 00:55:00,
2013-07-11 20:58:00,69.8,58.4,29.91,NE,50,0.0,4.0,67,0.00,,---,0.00,5.00,VWS V14.01,2013-07-12 00:58:00,
2013-07-11 21:00:00,69.7,58.7,29.91,NE,40,0.0,4.0,68,0.00,,---,0.00,5.00,VWS V14.01,2013-07-12 01:00:00,
2013-07-11 21:03:00,69.5,58.5,29.91,NE,40,0.0,0.0,68,0.00,,---,0.00,0.00,VWS V14.01,2013-07-12 01:03:00,
2013-07-11 21:05:00,69.4,58.4,29.92,NE,40,0.0,2.0,68,0.00,,---,0.00,0.00,VWS V14.01,2013-07-12 01:05:00,
2013-07-11 21:08:00,69.2,58.6,29.91,NE,40,0.0,1.0,69,0.00,,---,0.00,0.00,VWS V14.01,2013-07-12 01:08:00,
2013-07-11 21:10:00,69.1,58.5,29.91,NE,40,0.0,1.0,69,0.00,,---,0.00,0.00,VWS V14.01,2013-07-12 01:10:00,
2013-07-11 21:13:00,68.9,58.3,29.91,NE,40,0.0,1.0,69,0.00,,---,0.00,0.00,VWS V14.01,2013-07-12 01:13:00,
2013-07-11 21:15:00,68.8,58.2,29.91,NE,40,0.0,1.0,69,0.00,,---,0.00,0.00,VWS V14.01,2013-07-12 01:15:00,
2013-07-11 21:18:00,68.6,58.4,29.91,NE,40,1.0,1.0,70,0.00,,---,0.00,0.00,VWS V14.01,2013-07-12 01:18:00,
2013-07-11 21:20:00,68.5,58.3,29.91,NE,40,0.0,1.0,70,0.00,,---,0.00,0.00,VWS V14.01,2013-07-12 01:20:00,
2013-07-11 21:23:00,68.3,58.2,29.91,NE,40,0.0,1.0,70,0.00,,---,0.00,0.00,VWS V14.01,2013-07-12 01:23:00,
2013-07-11 21:25:00,68.2,58.5,29.91,NE,40,0.0,1.0,71,0.00,,---,0.00,0.00,VWS V14.01,2013-07-12 01:25:00,
2013-07-11 21:28:00,68.0,58.3,29.91,NE,40,0.0,1.0,71,0.00,,---,0.00,0.00,VWS V14.01,2013-07-12 01:28:00,
2013-07-11 21:30:00,67.9,58.2,29.91,NE,40,0.0,1.0,71,0.00,,---,0.00,0.00,VWS V14.01,2013-07-12 01:30:00,
2013-07-11 21:33:00,67.7,58.4,29.91,NE,40,0.0,1.0,72,0.00,,---,0.00,0.00,VWS V14.01,2013-07-12 01:33:00,
2013-07-11 21:35:00,67.7,58.4,29.91,NE,40,0.0,1.0,72,0.00,,---,0.00,0.00,VWS V14.01,2013-07-12 01:35:00,
2013-07-11 21:38:00,67.5,58.2,29.92,NE,40,0.0,2.0,72,0.00,,---,0.00,0.00,VWS V14.01,2013-07-12 01:38:00,
2013-07-11 21:40:00,67.4,58.1,29.92,NE,40,0.0,2.0,72,0.00,,---,0.00,0.00,VWS V14.01,2013-07-12 01:40:00,
2013-07-11 21:43:00,67.3,58.4,29.92,NE,40,0.0,1.0,73,0.00,,---,0.00,0.00,VWS V14.01,2013-07-12 01:43:00,
2013-07-11 21:45:00,67.2,58.3,29.92,NE,40,0.0,1.0,73,0.00,,---,0.00,0.00,VWS V14.01,2013-07-12 01:45:00,
2013-07-11 21:49:00,67.1,58.2,29.92,NE,40,0.0,1.0,73,0.00,,---,0.00,0.00,VWS V14.01,2013-07-12 01:49:00,
2013-07-11 21:50:00,67.1,58.5,29.92,NE,40,1.0,2.0,74,0.00,,---,0.00,0.00,VWS V14.01,2013-07-12 01:50:00,
2013-07-11 21:54:00,66.9,58.0,29.92,NE,40,0.0,1.0,73,0.00,,---,0.00,0.00,VWS V14.01,2013-07-12 01:54:00,
2013-07-11 21:55:00,66.8,57.9,29.92,NE,40,0.0,1.0,73,0.00,,---,0.00,0.00,VWS V14.01,2013-07-12 01:55:00,
2013-07-11 21:59:00,66.7,58.2,29.92,NE,41,0.0,1.0,74,0.00,,---,0.00,0.00,VWS V14.01,2013-07-12 01:59:00,
2013-07-11 22:00:00,66.6,58.1,29.92,NE,42,1.0,1.0,74,0.00,,---,0.00,0.00,VWS V14.01,2013-07-12 02:00:00,
2013-07-11 22:04:00,66.5,58.0,29.92,NE,42,0.0,1.0,74,0.00,,---,0.00,0.00,VWS V14.01,2013-07-12 02:04:00,
2013-07-11 22:05:00,66.5,58.0,29.92,NE,42,0.0,1.0,74,0.00,,---,0.00,0.00,VWS V14.01,2013-07-12 02:05:00,
2013-07-11 22:09:00,66.3,57.8,29.92,NE,44,0.0,2.0,74,0.00,,---,0.00,0.00,VWS V14.01,2013-07-12 02:09:00,
2013-07-11 22:10:00,66.3,57.8,29.92,NE,44,0.0,2.0,74,0.00,,---,0.00,0.00,VWS V14.01,2013-07-12 02:10:00,
2013-07-11 22:14:00,66.2,58.0,29.92,NE,44,0.0,1.0,75,0.00,,---,0.00,0.00,VWS V14.01,2013-07-12 02:14:00,
2013-07-11 22:15:00,66.2,58.0,29.92,NE,44,0.0,1.0,75,0.00,,---,0.00,0.00,VWS V14.01,2013-07-12 02:15:00,
2013-07-11 22:19:00,66.0,57.9,29.92,NE,44,0.0,1.0,75,0.00,,---,0.00,0.00,VWS V14.01,2013-07-12 02:19:00,
2013-07-11 22:20:00,66.0,57.9,29.92,NE,44,0.0,1.0,75,0.00,,---,0.00,0.00,VWS V14.01,2013-07-12 02:20:00,
2013-07-11 22:24:00,65.9,57.8,29.92,NE,44,0.0,1.0,75,0.00,,---,0.00,0.00,VWS V14.01,2013-07-12 02:24:00,
2013-07-11 22:25:00,65.9,57.8,29.92,NE,44,0.0,1.0,75,0.00,,---,0.00,0.00,VWS V14.01,2013-07-12 02:25:00,
2013-07-11 22:30:00,65.7,57.9,29.92,NE,44,0.0,0.0,76,0.00,,---,0.00,0.00,VWS V14.01,2013-07-12 02:30:00,
2013-07-11 22:35:00,65.6,57.8,29.93,NE,44,0.0,0.0,76,0.00,,---,0.00,0.00,VWS V14.01,2013-07-12 02:35:00,
2013-07-11 22:40:00,65.4,58.0,29.93,NE,44,0.0,0.0,77,0.00,,---,0.00,0.00,VWS V14.01,2013-07-12 02:40:00,
2013-07-11 22:45:00,65.1,57.7,29.93,NE,44,0.0,0.0,77,0.00,,---,0.00,0.00,VWS V14.01,2013-07-12 02:45:00,
2013-07-11 22:50:00,64.9,57.9,29.93,NE,44,0.0,0.0,78,0.00,,---,0.00,0.00,VWS V14.01,2013-07-12 02:50:00,
2013-07-11 22:55:00,64.7,58.0,29.93,NE,44,0.0,0.0,79,0.00,,---,0.00,0.00,VWS V14.01,2013-07-12 02:55:00,
2013-07-11 23:00:00,64.3,57.7,29.93,NE,44,0.0,0.0,79,0.00,,---,0.00,0.00,VWS V14.01,2013-07-12 03:00:00,
2013-07-11 23:05:00,64.0,58.1,29.93,NE,44,0.0,0.0,81,0.00,,---,0.00,0.00,VWS V14.01,2013-07-12 03:05:00,
2013-07-11 23:10:00,63.7,57.8,29.93,NE,44,0.0,0.0,81,0.00,,---,0.00,0.00,VWS V14.01,2013-07-12 03:10:00,
2013-07-11 23:15:00,63.3,57.7,29.93,NE,44,0.0,0.0,82,0.00,,---,0.00,0.00,VWS V14.01,2013-07-12 03:15:00,
2013-07-11 23:20:00,62.9,57.3,29.93,NE,44,0.0,0.0,82,0.00,,---,0.00,0.00,VWS V14.01,2013-07-12 03:20:00,
2013-07-11 23:25:00,62.6,57.4,29.93,NE,44,0.0,0.0,83,0.00,,---,0.00,0.00,VWS V14.01,2013-07-12 03:25:00,
2013-07-11 23:30:00,62.4,57.2,29.93,NE,44,0.0,0.0,83,0.00,,---,0.00,0.00,VWS V14.01,2013-07-12 03:30:00,
2013-07-11 23:35:00,62.2,57.0,29.93,NE,44,0.0,0.0,83,0.00,,---,0.00,0.00,VWS V14.01,2013-07-12 03:35:00,
2013-07-11 23:40:00,62.0,57.5,29.93,NE,44,0.0,0.0,85,0.00,,---,0.00,0.00,VWS V14.01,2013-07-12 03:40:00,
2013-07-11 23:45:00,61.8,57.2,29.93,NE,44,0.0,0.0,85,0.00,,---,0.00,0.00,VWS V14.01,2013-07-12 03:45:00,
2013-07-11 23:50:00,61.5,57.0,29.93,NE,44,0.0,0.0,85,0.00,,---,0.00,0.00,VWS V14.01,2013-07-12 03:50:00,
2013-07-11 23:55:00,61.3,56.8,29.93,NE,44,0.0,1.0,85,0.00,,---,0.00,0.00,VWS V14.01,2013-07-12 03:55:00,